Vorticity
3 10 10 2 3 5 1 4 6 4 6 6 7 5 3 6 5 5 3 4 9 8 10 7 8 13 12 8 6 7 12 12 7 4 4 2 1 5 7 6 7 7 5 4 3 4 6 6 6 9 8 6 5 4 5 5 4 5 5 5 4 4 4 5 4 5 5 6 5 4 3 3 4 5 4 4 4 5 4 4 5 5 5 6 6 7 7 6 5 5 6 7 5 1 0 2 3
3 3 11 10 2 4 4 5 7 4 7 6 6 7 5 8 5 4 6 5 6 9 10 6 9 16 13 15 12 13 18 9 3 3 4 3 2 8 8 7 7 5 5 5 5 5 8 10 9 8 7 6 5 5 5 5 5 5 5 5 5 4 3 4 4 6 5 5 4 3 3 3 5 4 4 5 6 5 5 6 5 5 5 5 5 5 6 6 6 5 5 6 5 4 2 2 3
7 -2 4 12 5 7 10 8 9 8 5 4 5 6 6 8 7 7 7 7 8 9 9 4 8 15 14 15 14 18 13 0 -1 1 4 5 4 9 8 7 9 7 7 7 7 7 8 8 7 5 6 6 4 4 5 5 6 4 5 4 4 3 3 4 5 6 5 5 3 3 3 4 5 6 7 7 6 6 7 7 6 6 6 5 5 4 6 6 6 5 5 6 6 6 5 4 4
6 2 -0 4 -0 -1 3 0 5 13 10 5 5 5 7 8 9 10 5 6 9 9 10 2 3 11 13 14 14 14 5 -2 -1 -2 1 6 7 7 8 9 9 8 7 7 7 7 5 5 5 4 5 5 4 4 4 5 4 4 4 4 3 3 4 5 6 5 5 4 3 4 5 6 7 7 7 6 7 7 7 6 5 5 4 4 4 4 5 5 5 5 5 5 6 6 7 6 6
6 9 3 3 -1 -7 -4 -1 2 6 6 7 7 4 6 7 6 7 4 5 6 7 9 3 3 6 8 13 12 5 -1 -0 3 3 2 6 11 7 7 8 7 8 6 7 6 6 4 3 5 4 4 4 5 4 4 5 5 5 4 4 3 4 5 6 6 5 5 4 5 7 7 7 7 6 5 6 6 6 6 5 5 4 4 3 3 4 4 5 5 5 5 5 5 6 7 7 6
5 7 6 7 5 3 1 0 4 2 -0 4 7 5 5 4 1 2 2 3 4 5 7 5 4 4 4 5 4 1 1 6 6 10 7 6 12 7 7 7 6 6 4 5 4 4 3 2 3 3 4 4 4 4 4 5 6 5 4 3 4 5 6 6 6 6 6 6 7 8 7 6 5 5 5 5 5 5 7 8 7 6 6 6 5 6 5 5 5 4 5 6 6 5 6 6 6
2 3 5 6 6 13 11 1 2 9 5 0 7 9 3 3 3 2 2 4 4 5 6 6 5 4 4 2 4 6 6 8 5 8 9 6 10 6 5 5 5 4 2 4 3 3 3 3 3 2 3 3 3 3 3 5 5 4 4 5 5 6 6 7 8 8 8 7 7 7 6 5 6 6 6 5 5 7 9 9 8 8 8 9 9 10 10 9 9 7 5 6 7 5 5 5 6
2 3 3 5 6 11 17 9 1 8 8 2 7 6 0 7 12 4 0 3 4 6 6 6 5 5 5 1 7 9 4 7 5 7 10 7 6 4 4 4 3 3 2 2 1 1 2 3 3 3 3 3 3 3 5 5 6 6 6 6 7 8 8 9 8 8 7 7 7 7 7 7 7 6 5 6 7 8 9 8 7 7 8 7 8 10 13 12 11 12 8 6 5 6 6 5 5
5 5 3 3 7 9 16 12 3 4 4 7 7 2 3 6 8 5 2 3 3 5 7 7 6 8 7 2 9 8 3 7 8 10 10 7 5 3 3 2 1 1 0 1 1 2 3 3 4 4 3 3 5 6 7 7 7 7 7 8 8 8 8 7 8 7 7 8 8 7 8 7 7 6 6 7 7 7 7 6 6 7 6 6 7 8 11 13 12 12 13 10 6 6 7 7 7
0 3 3 2 5 9 7 -1 4 6 0 8 2 -1 5 -2 -0 5 7 8 5 6 6 6 7 10 8 2 7 7 5 6 8 11 8 6 4 2 2 1 2 2 2 2 4 4 5 6 6 6 4 5 8 9 9 8 8 8 8 8 8 7 7 7 7 7 8 8 7 7 7 7 6 7 8 8 6 7 8 9 9 10 10 10 10 10 11 14 13 11 14 15 9 6 7 8 8
-0 4 3 4 4 8 6 -0 9 8 0 6 1 2 4 -5 2 4 6 9 6 6 4 4 6 10 9 3 6 7 8 7 6 8 6 7 4 1 2 3 4 5 6 4 5 6 7 8 7 7 6 7 9 9 9 8 8 7 7 8 8 8 8 8 8 8 8 8 8 8 8 7 8 8 8 8 8 10 11 12 13 13 14 13 12 11 11 12 12 11 13 14 11 8 7 7 7
5 5 1 2 3 8 10 16 22 13 3 3 1 5 4 0 8 7 8 9 6 7 5 4 6 11 11 6 7 8 10 9 9 8 5 6 4 4 4 3 3 3 3 4 6 8 10 9 7 7 8 9 10 9 8 8 7 6 7 9 9 9 10 9 8 9 8 8 8 8 7 7 7 8 9 10 11 11 11 12 12 12 12 12 12 11 10 10 11 11 12 12 11 11 10 9 9
5 -1 3 4 5 6 3 15 18 7 1 1 6 13 13 9 8 7 5 5 7 8 7 7 7 10 11 7 7 10 11 10 9 7 5 5 4 5 3 2 2 1 2 5 8 10 10 9 8 9 9 9 8 8 8 7 6 6 9 10 11 12 11 8 7 7 6 6 6 6 6 6 8 9 10 11 11 9 9 9 9 10 9 10 11 11 11 10 10 10 11 12 11 11 12 11 10
0 -4 6 4 -1 1 -0 8 6 -2 -1 1 12 18 14 9 7 7 2 5 8 4 4 7 8 9 9 5 5 8 9 8 6 6 6 5 5 4 2 2 1 1 3 6 11 10 9 9 9 9 8 7 8 8 7 6 6 8 10 11 13 12 9 6 6 5 4 5 5 6 7 8 10 10 9 8 8 8 7 7 7 7 7 8 9 10 11 12 11 11 12 12 11 11 11 12 12
1 -2 5 -0 -6 1 3 6 2 -3 -1 0 7 10 10 10 10 7 2 5 5 2 4 5 6 8 9 5 6 9 7 6 6 7 6 4 5 4 3 2 1 3 4 10 13 8 8 9 7 7 8 8 9 9 7 7 8 10 11 12 12 10 7 5 6 6 6 7 7 7 9 10 10 9 7 6 6 6 6 6 7 7 7 7 7 8 9 10 11 12 12 10 11 12 13 15 16
3 2 4 -0 -2 5 0 0 2 -5 -6 -3 2 6 14 14 9 9 7 8 6 5 5 5 6 7 10 6 6 11 8 6 7 6 6 4 4 4 3 2 2 4 6 13 12 7 9 8 6 8 9 10 9 9 8 8 9 10 10 11 11 9 7 7 7 8 7 7 8 9 10 10 9 7 6 5 5 5 5 6 6 7 8 8 8 9 8 8 8 9 7 5 8 10 11 12 12
1 4 8 1 0 7 2 2 5 4 4 2 1 2 11 11 8 12 13 12 8 6 4 4 7 7 9 5 5 11 8 4 4 5 5 3 2 2 2 2 3 4 9 14 9 8 8 6 8 10 10 10 9 8 8 8 9 10 10 11 11 10 9 8 7 7 7 8 9 9 9 8 7 7 6 6 6 6 6 6 7 7 7 7 7 7 7 8 8 8 7 4 6 7 10 11 8
1 6 11 4 4 5 5 5 2 7 8 3 3 3 8 10 9 10 12 14 8 6 7 7 7 6 8 6 7 11 8 5 4 5 6 4 2 2 2 4 4 5 12 13 7 9 7 6 10 10 9 9 8 8 8 8 9 9 10 10 10 10 8 6 5 6 8 9 9 8 7 7 7 7 6 6 6 7 6 6 6 6 5 5 4 5 5 5 6 8 8 5 5 5 6 8 8
3 8 6 2 8 5 5 2 1 10 2 0 11 9 7 9 10 7 9 17 15 11 7 5 6 4 6 7 8 9 8 8 8 8 8 7 5 4 5 6 5 7 14 11 7 8 6 9 10 8 9 8 7 7 7 7 7 8 8 9 9 8 6 4 5 7 8 8 7 7 6 6 7 7 6 6 6 5 5 5 5 4 4 3 3 3 3 4 4 4 4 3 3 2 2 3 4
3 7 2 -1 3 5 8 -1 5 17 -1 -3 14 13 7 9 13 8 6 12 14 14 8 7 10 6 6 6 6 8 9 9 9 9 9 9 8 8 8 7 7 11 14 10 8 8 7 10 8 8 9 8 7 5 6 6 6 7 6 7 7 7 6 4 5 7 7 6 5 5 6 6 6 6 6 5 4 4 3 3 3 3 3 3 3 3 3 3 3 3 3 3 4 3 4 4 2
3 7 4 4 5 7 12 5 9 15 0 -0 10 12 5 8 16 6 5 9 4 8 10 14 14 6 6 8 7 7 8 10 11 9 7 9 10 9 9 8 10 14 12 9 8 7 8 9 7 8 9 9 9 5 5 5 5 6 6 6 6 7 7 5 6 7 6 6 6 6 6 5 5 4 4 4 4 3 3 3 3 3 3 4 4 4 4 4 5 4 4 4 5 5 5 6 4
9 13 3 6 11 2 -3 3 18 15 2 4 5 6 3 6 16 10 10 11 3 5 7 9 11 6 8 9 7 7 9 11 12 11 6 7 10 10 8 9 12 13 11 8 6 6 8 7 6 8 8 9 10 8 6 5 5 5 5 6 6 7 7 7 7 6 7 6 6 7 6 5 4 3 3 3 3 3 3 3 4 3 4 5 5 5 4 4 5 5 4 5 5 5 6 6 6
1 9 4 4 4 -2 -9 -3 20 16 0 5 7 6 6 6 17 23 25 18 9 12 10 6 6 7 9 7 7 10 12 10 11 11 6 6 9 9 9 12 14 12 9 7 4 6 7 5 5 5 6 7 7 8 7 6 6 6 6 6 6 7 7 8 8 6 5 6 6 6 6 4 3 3 3 3 3 4 3 4 5 5 5 5 5 5 5 4 4 5 5 5 5 5 5 6 7
-5 1 4 3 -5 -1 2 -1 18 22 4 4 6 3 4 5 11 15 19 17 10 10 12 8 3 6 11 10 10 12 12 9 9 10 9 8 9 10 12 14 13 10 9 4 4 7 6 4 4 3 5 6 6 7 7 7 7 7 8 7 8 10 9 7 6 6 5 4 5 4 4 3 3 3 3 4 4 4 4 5 6 6 4 4 5 5 5 4 4 4 4 5 4 5 5 5 6
-3 -3 -4 -1 -5 -2 2 0 10 12 3 2 2 5 7 5 6 7 10 15 11 4 8 9 4 6 11 11 9 9 11 11 9 10 13 10 8 12 15 15 11 10 8 2 5 7 5 5 4 3 4 5 6 7 7 8 8 9 8 6 8 10 10 8 6 6 5 4 4 4 5 4 3 4 4 5 5 4 5 6 5 5 4 3 4 4 4 4 3 3 4 5 4 5 6 5 5
-4 -3 -9 -6 -5 -3 1 1 -4 -10 -1 9 8 8 11 8 4 6 7 10 13 7 5 9 7 7 11 10 7 6 8 12 12 12 13 9 9 13 14 13 10 10 7 2 6 6 4 6 4 3 3 4 7 7 7 7 6 8 8 7 7 8 8 6 6 5 5 5 5 4 5 5 4 4 4 5 5 5 6 5 5 4 4 4 3 4 5 5 4 4 4 5 5 5 5 6 5
-10 -4 -9 -10 -8 -3 3 4 -4 -10 -4 11 18 9 7 11 4 -1 4 10 13 7 4 9 10 9 12 11 7 7 7 10 14 14 13 10 9 11 12 13 11 10 5 3 6 5 5 6 4 3 3 4 7 8 8 7 6 6 8 9 7 6 5 5 5 4 4 5 5 4 4 4 4 4 4 5 5 5 5 5 4 4 4 4 4 4 4 4 5 5 4 5 5 5 5 7 6
0 2 -8 -11 -8 -6 1 2 -2 -2 -2 5 19 13 2 6 6 3 10 16 12 4 3 8 11 10 12 10 8 10 7 7 14 16 13 11 9 8 12 12 9 8 4 4 6 5 6 6 4 4 4 7 7 8 9 8 7 5 6 8 7 6 5 5 4 3 2 3 4 3 3 4 4 4 4 4 5 5 5 5 5 4 5 4 4 4 3 3 6 5 4 5 5 5 6 7 7
9 4 -9 -13 -9 -6 -0 2 -1 1 0 -3 8 14 8 5 9 9 9 12 11 6 4 6 10 12 11 10 8 10 10 8 14 18 14 12 8 6 12 11 6 7 4 4 6 6 7 6 5 5 6 7 6 6 7 8 7 6 6 6 5 5 5 6 5 3 3 2 2 2 3 4 5 6 5 5 7 6 6 7 6 4 4 4 4 4 4 4 5 5 5 7 6 5 5 6 7
2 2 2 2 4 1 -5 -1 3 2 1 2 9 14 12 4 2 3 2 5 9 8 5 2 8 12 12 11 10 9 9 11 16 18 14 13 9 6 13 9 4 6 4 4 6 6 7 6 5 5 5 5 4 4 6 8 7 6 6 5 5 4 4 6 5 5 4 3 3 3 4 4 5 7 7 6 6 6 5 5 5 4 3 4 5 5 6 6 4 3 5 7 7 6 6 5 7
1 0 9 17 18 9 -2 4 10 5 5 7 11 16 17 8 -3 -2 3 6 7 9 7 1 3 10 13 12 11 9 7 12 18 16 12 14 10 8 13 8 4 6 4 6 6 4 6 4 4 5 7 6 5 5 6 8 8 6 6 5 6 5 4 5 4 5 5 5 5 4 4 5 7 8 7 5 5 6 4 4 4 4 3 4 5 5 5 6 4 2 4 6 7 7 6 6 6
6 -3 -2 8 25 25 8 3 5 8 8 3 7 13 12 6 -1 1 7 7 7 12 12 4 1 6 13 13 10 9 9 11 14 11 10 15 12 9 12 8 4 5 5 6 4 4 5 3 5 8 9 9 7 7 7 7 6 5 6 6 6 6 5 5 5 5 5 6 7 6 7 7 7 7 6 5 5 5 3 3 4 3 4 4 4 4 4 5 5 4 5 6 6 6 7 6 6
5 2 -3 2 33 38 7 -16 -13 6 8 1 7 9 5 7 9 8 8 6 4 13 15 7 4 5 10 14 11 9 11 10 8 9 9 13 14 10 10 7 4 4 5 7 3 4 6 3 5 6 5 6 7 8 7 7 6 6 7 7 7 6 5 6 6 5 4 6 7 8 9 8 7 6 4 4 5 5 4 4 4 3 4 3 3 3 4 5 5 6 7 7 6 6 7 6 6
10 7 3 10 36 33 13 -5 -13 -1 0 -4 9 15 7 0 2 2 6 11 4 9 17 9 6 7 7 12 13 9 9 9 9 11 10 11 13 11 9 7 5 4 3 6 4 4 6 4 4 4 4 4 3 5 6 7 6 8 10 8 8 7 5 5 6 6 6 6 7 8 9 7 6 5 4 5 5 4 3 3 3 3 2 2 2 2 3 5 6 7 7 7 7 7 7 6 6
12 8 4 20 33 12 11 13 -6 -8 -5 -7 2 12 1 -12 -5 -1 3 14 8 5 15 13 6 7 7 9 13 9 6 10 11 13 13 12 14 12 10 7 6 5 4 6 6 4 4 4 4 3 4 4 3 3 5 7 7 7 9 9 8 7 6 5 5 7 8 8 6 6 7 6 5 5 5 4 4 3 2 2 2 1 2 2 2 2 3 4 6 8 8 7 8 8 8 7 7
8 10 3 12 18 -3 -1 17 6 -6 -3 -3 -5 1 -2 -8 -0 3 3 12 14 9 11 15 9 4 7 7 12 12 7 9 9 11 14 13 14 14 12 10 7 4 4 7 8 5 3 3 4 3 3 4 4 3 4 7 8 7 7 7 7 7 6 5 5 7 8 7 5 5 6 5 5 4 3 3 2 1 1 1 2 2 3 3 4 4 6 7 8 10 10 8 8 8 8 8 7
5 12 4 -4 10 10 4 11 6 -8 -5 -3 -8 -2 1 -4 -2 4 7 6 12 13 3 9 12 4 5 6 12 15 9 9 8 8 11 11 13 14 11 9 8 7 5 8 9 4 3 3 4 4 4 4 4 4 5 6 7 8 7 6 6 7 6 5 5 6 7 6 5 5 4 3 3 2 2 3 1 2 2 2 3 4 4 5 7 8 10 12 12 12 11 9 8 8 9 9 8
3 10 8 2 22 30 10 3 1 -5 -2 -7 -12 -3 -2 -1 4 6 7 2 10 17 6 7 11 6 5 4 11 16 12 10 9 8 9 9 11 12 12 9 9 10 8 8 7 5 4 4 5 5 4 5 5 4 5 7 7 7 7 6 7 7 6 5 5 5 6 5 4 4 4 2 2 2 1 2 2 3 4 4 6 7 8 9 10 12 13 14 12 11 10 9 9 10 10 10 9
4 7 8 10 20 20 9 6 0 -3 4 3 1 0 -5 -0 4 3 8 10 13 19 16 10 9 10 7 2 8 14 13 10 8 7 7 9 9 8 9 8 8 9 9 9 7 6 6 4 4 4 5 5 4 4 5 6 7 6 7 7 7 7 6 6 5 4 4 4 3 2 3 2 2 2 2 2 3 5 6 8 11 11 11 12 11 13 13 13 11 9 9 9 9 10 9 9 8
4 5 9 12 12 14 19 10 -4 -3 7 12 8 -1 -4 -1 -2 -2 6 9 8 13 17 11 8 11 7 3 7 9 11 12 10 8 6 8 8 6 7 6 5 6 7 8 7 6 5 5 3 2 5 8 6 5 5 6 6 5 6 6 6 6 5 6 5 4 3 2 2 3 2 2 2 2 3 3 5 7 10 12 13 13 12 11 11 12 14 13 12 10 10 10 10 9 9 9 8
7 5 9 15 5 1 9 0 -8 2 6 6 6 1 -3 -4 -3 -1 -2 1 10 15 15 10 8 11 6 4 6 6 8 10 12 14 12 12 9 6 5 4 6 7 7 7 7 7 5 5 7 4 4 8 8 7 6 6 6 6 6 5 5 5 5 5 4 4 3 1 2 3 3 2 3 3 3 5 8 10 12 12 12 11 10 8 9 10 12 12 11 10 9 9 9 9 9 9 9
9 4 9 20 5 -12 -3 -4 -8 5 10 8 7 1 -5 -4 -1 1 0 3 9 14 15 10 8 11 9 6 7 7 7 6 9 13 14 14 13 10 7 6 7 7 5 6 6 6 6 6 8 7 5 6 7 8 8 7 6 6 6 5 5 5 5 5 4 4 2 2 4 4 3 3 3 4 4 7 10 11 11 11 11 9 6 5 6 8 8 9 9 9 9 8 8 8 8 8 8
11 11 12 19 13 5 11 2 -12 -0 18 19 10 -1 -1 6 4 1 5 6 4 8 10 6 8 11 10 9 8 8 8 5 5 6 9 11 12 12 10 9 9 6 4 4 5 5 5 5 5 5 6 6 7 9 9 8 7 8 6 6 6 4 5 4 4 5 4 4 5 4 4 4 3 3 5 9 10 9 9 9 9 7 4 4 5 7 6 6 6 6 6 6 6 7 7 7 7
16 20 15 12 14 17 16 1 -11 -8 1 8 14 11 7 8 8 6 7 5 6 9 3 2 12 14 11 11 10 7 6 7 6 4 6 6 7 8 9 10 9 7 6 6 7 8 7 7 6 6 6 7 8 9 9 9 8 8 8 8 7 4 6 6 4 5 6 5 5 5 5 4 4 4 6 10 9 7 8 9 7 4 4 6 6 5 4 3 4 4 5 5 5 5 5 5 5
20 21 13 11 14 17 11 -4 -8 -7 -8 -3 4 6 2 -1 1 3 4 7 12 10 -1 5 18 16 10 10 9 7 5 5 7 7 7 5 4 5 6 8 8 8 10 9 8 8 8 8 7 7 7 7 6 6 6 7 7 8 8 8 7 5 6 6 6 6 7 6 4 5 5 3 4 5 8 10 8 7 8 6 5 5 7 7 5 4 3 3 3 4 5 5 5 5 4 4 3
22 16 11 13 12 13 10 -2 -4 -3 -3 -2 -3 -1 1 2 3 1 3 10 12 7 -0 5 17 15 9 7 7 9 7 5 4 5 7 6 3 4 5 6 7 8 9 9 8 6 6 6 6 7 6 6 6 5 4 5 5 6 7 7 7 6 6 6 6 7 7 6 5 5 5 4 5 7 9 10 8 6 6 5 5 6 7 6 5 5 5 5 5 5 5 6 6 5 5 4 5
20 15 13 15 10 5 -0 -3 1 -1 -8 -10 -7 -0 1 1 8 9 9 7 -2 -4 1 4 12 15 11 9 7 6 7 6 4 3 4 6 4 4 5 4 5 6 6 6 6 6 5 4 5 4 4 5 6 6 5 5 5 5 6 6 6 6 6 6 5 6 6 5 5 5 5 6 8 10 10 8 7 5 4 5 5 5 5 5 5 5 5 6 6 6 7 6 5 5 6 6 6
17 16 13 13 13 4 -5 -2 3 -2 -3 -3 -7 -3 -2 -5 2 8 9 7 -4 -4 8 9 7 9 11 11 8 6 7 5 3 2 1 3 4 4 4 5 6 5 4 4 3 4 5 5 6 4 3 5 5 5 6 6 6 6 6 5 5 6 6 5 6 5 5 5 5 6 7 9 11 11 9 7 6 5 5 6 6 6 5 5 5 5 6 7 6 6 6 2 3 10 14 16 13
12 16 13 12 13 3 -6 4 6 -6 2 15 3 -7 -9 -12 -3 4 0 1 1 3 11 9 3 6 12 11 6 5 9 9 5 2 2 2 3 5 5 3 5 6 5 5 4 4 5 6 7 6 5 4 5 5 6 7 6 6 7 5 4 6 6 6 6 5 6 6 6 7 8 10 12 10 9 8 6 5 5 6 6 6 6 6 6 6 6 6 5 6 4 -1 4 12 15 19 23
9 16 14 10 12 4 -3 9 9 -6 2 21 14 -2 -7 -11 -5 7 3 -1 2 6 10 5 -2 4 11 10 7 8 14 16 10 5 5 5 4 6 8 6 5 8 8 7 7 5 6 7 8 7 6 6 6 5 5 6 7 5 6 6 5 6 6 5 6 6 6 6 6 7 7 9 12 10 8 7 5 5 7 8 7 7 7 6 5 6 6 5 6 8 6 5 8 8 6 9 13
8 16 16 13 16 12 10 13 8 -2 3 15 11 -1 -3 -8 -11 3 6 -2 -0 4 6 1 -7 1 9 9 11 12 12 13 12 11 6 4 7 7 7 8 6 7 8 7 7 6 5 6 7 7 8 8 7 6 4 4 5 6 6 6 6 6 5 4 5 5 5 5 6 6 6 10 11 9 7 5 5 7 8 8 8 7 7 6 4 4 6 7 10 12 11 10 7 5 5 6 6
6 10 10 12 19 18 13 10 11 10 3 4 10 0 -5 -5 -5 7 9 -3 -2 2 3 4 1 5 10 11 13 12 10 8 7 9 7 7 11 8 7 10 8 5 5 5 5 6 5 4 5 6 7 9 9 7 6 4 3 6 7 7 6 5 5 5 4 4 4 6 7 6 6 10 10 8 6 5 6 8 8 8 8 8 7 6 4 5 8 11 12 11 9 6 5 4 4 5 5
8 7 6 9 17 21 16 9 16 21 0 -4 14 10 0 2 3 9 7 -4 -1 4 5 10 10 9 11 14 17 12 9 9 3 1 5 11 12 10 12 14 8 3 3 5 6 5 5 4 5 8 9 12 13 11 9 7 6 7 9 9 7 5 5 4 3 4 5 7 7 6 6 9 10 8 6 5 7 8 7 6 7 8 7 5 6 9 11 11 9 6 5 4 4 5 4 4 5
6 5 8 10 11 17 21 13 11 15 2 2 21 17 5 6 5 5 5 -1 2 5 5 10 13 13 12 14 19 18 11 8 10 10 9 10 10 8 10 11 6 4 4 4 5 4 4 5 7 10 13 15 15 14 12 11 8 8 9 9 8 5 4 4 4 4 7 9 8 5 6 9 9 7 6 7 8 8 6 5 8 8 6 5 7 9 8 7 6 4 3 3 3 3 3 4 4
6 8 9 9 6 7 13 12 10 12 5 4 22 26 14 11 11 8 8 8 10 9 7 8 10 11 11 10 16 26 24 11 6 12 11 11 13 10 10 12 9 5 4 3 5 6 4 6 8 10 12 15 17 18 18 15 12 10 9 8 7 6 4 5 6 7 9 10 7 5 7 10 9 7 7 8 8 7 5 7 9 8 7 6 6 6 5 5 4 4 4 4 5 5 5 5 4
6 5 6 5 3 3 4 5 10 14 6 -4 8 21 19 20 21 12 7 10 13 15 11 4 4 8 10 6 2 14 32 26 8 5 8 8 11 10 10 15 14 7 4 4 4 5 5 6 7 9 11 15 19 20 19 18 15 11 9 9 7 6 6 6 7 8 9 8 6 6 8 10 8 7 7 7 7 6 7 9 10 6 4 5 5 5 5 6 5 6 8 8 9 10 9 9 10
6 2 3 2 3 6 2 -0 6 12 9 -1 -3 4 11 23 32 22 9 5 4 4 3 2 5 9 7 3 -3 0 18 31 22 10 8 5 6 9 8 10 14 11 7 7 4 2 4 6 6 9 11 14 17 18 18 19 18 14 11 9 7 6 5 6 9 10 9 8 7 7 9 9 7 7 8 7 6 6 8 8 6 4 4 5 6 7 7 8 9 10 10 11 12 12 12 12 12
9 7 7 6 5 6 2 2 6 6 7 5 -6 -8 1 13 27 31 23 13 3 -4 -4 -0 1 4 6 3 4 3 5 21 29 18 12 11 9 10 9 9 15 14 10 9 5 2 2 4 6 9 11 16 18 17 15 17 19 20 18 13 11 9 8 13 18 16 11 9 7 8 9 8 6 7 7 6 7 7 6 4 3 5 6 6 7 8 8 7 8 8 9 10 9 8 9 10 10
Height
5905 5904 5903 5903 5902 5902 5902 5902 5902 5902 5902 5902 5902 5903 5903 5903 5904 5905 5906 5905 5904 5904 5905 5904 5904 5904 5905 5905 5906 5907 5908 5909 5908 5908 5910 5910 5911 5911 5911 5911 5911 5911 5910 5910 5911 5911 5911 5911 5912 5912 5913 5913 5913 5913 5913 5912 5912 5912 5912 5913 5913 5913 5914 5915 5915 5915 5914 5914 5913 5913 5913 5913 5913 5913 5913 5913 5913 5913 5913 5912 5912 5912 5912 5911 5911 5911 5911 5911 5910 5910 5910 5910 5910 5910 5910 5910 5909
5906 5905 5904 5904 5903 5903 5903 5903 5903 5903 5903 5903 5903 5903 5903 5904 5905 5906 5906 5906 5905 5905 5905 5905 5905 5905 5905 5906 5907 5908 5908 5909 5909 5909 5910 5911 5912 5912 5912 5912 5912 5911 5911 5911 5911 5912 5912 5912 5913 5913 5913 5913 5913 5913 5913 5913 5913 5913 5914 5914 5914 5914 5915 5915 5915 5915 5915 5914 5914 5913 5913 5913 5913 5913 5914 5914 5914 5913 5913 5913 5913 5912 5912 5911 5911 5911 5911 5911 5910 5910 5910 5910 5910 5910 5910 5910 5910
5906 5906 5905 5904 5904 5904 5904 5904 5904 5903 5903 5903 5903 5903 5903 5904 5905 5906 5906 5906 5905 5905 5906 5905 5905 5906 5906 5906 5907 5908 5908 5909 5910 5910 5910 5911 5912 5913 5913 5912 5912 5912 5911 5912 5912 5912 5912 5913 5913 5913 5913 5913 5913 5914 5914 5914 5914 5914 5915 5915 5915 5915 5915 5916 5916 5915 5915 5914 5914 5913 5913 5914 5914 5914 5914 5914 5914 5914 5913 5913 5913 5913 5912 5912 5912 5912 5912 5911 5911 5910 5910 5910 5910 5910 5910 5910 5910
5907 5906 5906 5905 5905 5905 5905 5905 5905 5904 5904 5904 5904 5904 5904 5904 5904 5905 5905 5904 5905 5905 5905 5905 5906 5906 5907 5907 5907 5908 5909 5910 5911 5910 5910 5912 5912 5913 5913 5913 5913 5912 5912 5912 5912 5913 5913 5913 5914 5914 5914 5914 5914 5914 5914 5914 5915 5915 5915 5915 5915 5915 5916 5916 5916 5915 5914 5914 5914 5914 5914 5914 5915 5915 5915 5914 5914 5914 5914 5913 5913 5913 5912 5912 5912 5912 5912 5911 5911 5911 5910 5910 5911 5910 5910 5910 5911
5907 5907 5906 5906 5906 5905 5905 5905 5905 5905 5904 5905 5905 5905 5905 5904 5904 5905 5904 5904 5905 5905 5905 5906 5907 5907 5908 5909 5908 5909 5910 5911 5913 5912 5910 5912 5913 5913 5913 5913 5913 5913 5913 5913 5913 5913 5913 5914 5914 5914 5914 5914 5914 5915 5915 5915 5916 5916 5916 5916 5916 5916 5916 5916 5915 5915 5914 5914 5914 5914 5914 5915 5915 5915 5915 5914 5914 5914 5914 5914 5913 5912 5912 5912 5912 5912 5912 5912 5911 5911 5911 5911 5911 5911 5911 5911 5911
5907 5907 5907 5907 5906 5906 5906 5906 5906 5905 5905 5905 5905 5905 5905 5905 5905 5905 5905 5905 5905 5906 5907 5907 5908 5909 5910 5910 5910 5910 5910 5911 5913 5913 5911 5912 5914 5913 5913 5914 5914 5913 5913 5913 5913 5913 5914 5914 5914 5915 5915 5915 5915 5915 5915 5915 5916 5916 5916 5916 5916 5916 5916 5916 5915 5915 5915 5914 5914 5914 5915 5915 5915 5915 5914 5915 5914 5914 5914 5914 5913 5913 5912 5912 5912 5912 5912 5911 5911 5911 5911 5911 5911 5911 5911 5911 5912
5907 5906 5907 5907 5907 5907 5906 5906 5906 5906 5905 5905 5904 5904 5905 5906 5906 5907 5907 5907 5907 5907 5908 5908 5909 5909 5910 5911 5911 5912 5912 5912 5913 5913 5912 5913 5914 5914 5914 5914 5914 5914 5914 5914 5914 5914 5914 5914 5915 5915 5915 5915 5916 5916 5915 5915 5916 5916 5916 5916 5916 5916 5916 5916 5915 5915 5915 5915 5915 5915 5915 5915 5915 5914 5914 5915 5914 5914 5914 5914 5913 5913 5912 5912 5912 5912 5911 5911 5911 5911 5911 5911 5911 5911 5911 5912 5912
5906 5905 5906 5907 5907 5907 5907 5907 5906 5906 5905 5905 5904 5904 5905 5906 5907 5908 5908 5908 5908 5908 5909 5909 5909 5910 5910 5911 5912 5912 5913 5913 5913 5913 5913 5913 5915 5915 5915 5915 5915 5915 5915 5915 5915 5915 5915 5915 5915 5915 5916 5916 5916 5916 5916 5916 5916 5916 5917 5917 5916 5916 5916 5916 5916 5915 5915 5915 5915 5915 5915 5915 5915 5914 5914 5914 5914 5914 5914 5914 5913 5913 5913 5912 5912 5912 5911 5911 5911 5911 5911 5911 5911 5911 5912 5912 5912
5905 5905 5905 5906 5907 5907 5908 5907 5907 5906 5905 5905 5904 5903 5905 5908 5909 5910 5909 5909 5908 5909 5909 5910 5910 5910 5910 5911 5912 5913 5913 5914 5914 5914 5914 5914 5915 5916 5916 5916 5916 5916 5916 5916 5915 5915 5915 5915 5916 5916 5917 5917 5917 5916 5916 5916 5917 5917 5917 5917 5917 5916 5916 5916 5916 5916 5915 5915 5915 5915 5915 5915 5915 5914 5914 5914 5914 5914 5914 5914 5913 5913 5913 5913 5912 5912 5912 5911 5911 5911 5911 5912 5912 5912 5912 5912 5912
5905 5905 5905 5906 5906 5907 5908 5908 5908 5906 5904 5904 5903 5903 5906 5908 5910 5911 5910 5909 5909 5909 5910 5910 5910 5911 5911 5911 5912 5913 5913 5914 5914 5914 5914 5915 5915 5916 5916 5916 5916 5916 5916 5916 5916 5915 5915 5916 5916 5917 5917 5917 5917 5917 5916 5916 5917 5917 5917 5917 5917 5916 5916 5916 5916 5916 5916 5915 5915 5915 5915 5915 5915 5915 5915 5915 5915 5914 5914 5914 5913 5913 5913 5913 5913 5913 5912 5912 5912 5912 5912 5912 5912 5912 5912 5912 5912
5905 5905 5905 5906 5906 5906 5907 5907 5907 5906 5904 5904 5903 5904 5906 5907 5909 5911 5911 5910 5910 5910 5910 5911 5911 5911 5912 5912 5912 5913 5913 5914 5914 5914 5914 5915 5915 5916 5916 5916 5916 5916 5916 5916 5916 5916 5916 5916 5916 5917 5918 5918 5917 5917 5916 5917 5917 5917 5917 5917 5917 5916 5916 5916 5916 5916 5916 5916 5915 5915 5916 5916 5916 5915 5915 5915 5915 5914 5914 5914 5914 5914 5914 5913 5913 5913 5913 5913 5912 5912 5912 5912 5912 5912 5912 5912 5911
5905 5906 5906 5906 5906 5906 5906 5906 5906 5904 5903 5904 5904 5906 5907 5908 5909 5910 5911 5911 5910 5910 5911 5911 5911 5912 5912 5912 5913 5913 5914 5914 5914 5914 5915 5915 5915 5916 5916 5916 5916 5916 5916 5916 5916 5916 5916 5916 5917 5918 5918 5918 5917 5917 5916 5917 5917 5917 5917 5917 5917 5916 5916 5916 5917 5917 5916 5916 5916 5916 5917 5917 5916 5916 5916 5916 5915 5915 5915 5914 5914 5914 5914 5914 5914 5914 5914 5913 5913 5913 5913 5912 5912 5912 5912 5912 5911
5905 5906 5907 5906 5906 5906 5905 5905 5905 5904 5902 5903 5905 5908 5909 5909 5910 5910 5911 5911 5910 5911 5911 5911 5911 5912 5912 5912 5913 5913 5914 5915 5915 5915 5915 5915 5915 5915 5916 5916 5916 5916 5917 5917 5917 5916 5916 5917 5917 5917 5917 5917 5917 5916 5917 5917 5917 5917 5917 5917 5917 5917 5917 5917 5917 5918 5917 5917 5917 5917 5917 5917 5917 5917 5917 5916 5916 5916 5915 5915 5915 5915 5915 5915 5915 5915 5915 5914 5914 5913 5913 5913 5913 5912 5912 5912 5911
5906 5907 5907 5906 5906 5905 5905 5905 5906 5904 5903 5905 5906 5908 5910 5910 5910 5911 5911 5911 5911 5911 5911 5911 5911 5911 5912 5912 5913 5913 5914 5915 5915 5915 5915 5915 5915 5915 5916 5916 5916 5917 5917 5917 5916 5916 5916 5916 5917 5917 5917 5917 5917 5917 5917 5917 5917 5917 5917 5917 5917 5917 5918 5918 5918 5918 5918 5918 5918 5918 5918 5919 5919 5918 5918 5917 5917 5917 5917 5917 5917 5916 5916 5916 5917 5917 5916 5915 5915 5914 5914 5914 5913 5913 5913 5913 5912
5906 5907 5907 5906 5906 5905 5905 5906 5906 5905 5905 5905 5906 5907 5909 5910 5911 5911 5910 5910 5911 5911 5911 5911 5911 5911 5912 5912 5913 5913 5914 5915 5916 5916 5916 5915 5916 5916 5916 5916 5916 5917 5917 5916 5916 5916 5916 5916 5917 5917 5917 5917 5917 5917 5917 5918 5918 5918 5918 5918 5918 5918 5919 5919 5919 5919 5919 5919 5919 5919 5919 5920 5920 5919 5919 5918 5918 5918 5918 5918 5918 5918 5918 5918 5918 5918 5917 5917 5916 5916 5916 5915 5914 5914 5915 5914 5913
5906 5906 5907 5906 5906 5906 5905 5906 5906 5905 5906 5905 5906 5908 5909 5910 5910 5910 5910 5910 5911 5911 5911 5911 5911 5911 5912 5912 5913 5913 5914 5915 5916 5916 5916 5916 5916 5916 5916 5916 5917 5917 5917 5916 5916 5916 5916 5917 5917 5917 5917 5917 5918 5918 5918 5918 5918 5918 5918 5919 5919 5919 5920 5920 5920 5920 5920 5921 5921 5921 5921 5921 5921 5920 5920 5919 5919 5919 5919 5919 5919 5919 5919 5919 5920 5920 5919 5918 5918 5917 5917 5916 5915 5916 5916 5916 5915
5906 5907 5907 5907 5906 5906 5907 5906 5906 5906 5906 5906 5906 5908 5909 5909 5909 5909 5910 5911 5910 5910 5911 5911 5911 5911 5912 5912 5913 5914 5914 5915 5915 5916 5916 5916 5916 5916 5916 5917 5917 5917 5917 5917 5917 5917 5917 5918 5918 5918 5918 5918 5918 5918 5918 5918 5919 5919 5919 5919 5920 5920 5921 5921 5921 5922 5922 5922 5922 5922 5922 5922 5922 5921 5921 5920 5920 5920 5920 5920 5920 5920 5921 5921 5922 5922 5921 5920 5919 5919 5919 5918 5917 5917 5918 5917 5916
5906 5906 5907 5907 5907 5907 5907 5907 5907 5907 5906 5906 5906 5907 5908 5909 5908 5909 5910 5910 5910 5910 5910 5910 5910 5911 5912 5912 5913 5913 5914 5914 5915 5915 5915 5916 5916 5916 5917 5917 5917 5917 5917 5917 5917 5918 5918 5918 5918 5918 5918 5918 5918 5919 5919 5919 5920 5920 5920 5920 5921 5921 5922 5922 5923 5923 5923 5923 5923 5923 5923 5923 5923 5922 5922 5922 5922 5921 5922 5922 5922 5922 5922 5923 5923 5923 5923 5922 5921 5920 5920 5920 5919 5919 5919 5919 5918
5905 5906 5907 5908 5907 5907 5907 5907 5908 5908 5907 5906 5906 5907 5908 5908 5909 5909 5909 5909 5909 5910 5909 5909 5910 5911 5912 5912 5912 5913 5913 5914 5914 5915 5915 5915 5916 5916 5916 5917 5917 5917 5917 5917 5918 5918 5919 5919 5919 5919 5919 5919 5919 5919 5920 5920 5920 5921 5921 5922 5922 5923 5923 5924 5924 5924 5924 5924 5924 5924 5924 5924 5924 5924 5923 5923 5923 5923 5923 5924 5924 5924 5924 5925 5925 5925 5925 5924 5923 5922 5921 5921 5921 5920 5920 5920 5920
5905 5906 5907 5907 5908 5908 5907 5907 5907 5907 5906 5906 5907 5907 5907 5908 5909 5908 5908 5908 5908 5909 5908 5908 5909 5910 5911 5911 5912 5912 5913 5913 5914 5914 5915 5915 5915 5916 5916 5916 5917 5917 5917 5918 5918 5918 5919 5919 5919 5919 5919 5919 5920 5920 5920 5921 5921 5922 5922 5923 5923 5924 5924 5925 5925 5925 5925 5925 5925 5925 5925 5925 5925 5925 5925 5925 5925 5925 5925 5925 5925 5925 5925 5926 5926 5927 5926 5926 5925 5924 5923 5923 5923 5922 5921 5921 5921
5906 5906 5906 5907 5908 5909 5909 5909 5908 5906 5905 5906 5906 5906 5906 5907 5909 5908 5908 5908 5908 5908 5908 5908 5909 5910 5910 5911 5911 5912 5912 5913 5913 5914 5914 5914 5915 5915 5916 5916 5916 5917 5917 5918 5918 5919 5919 5919 5919 5919 5920 5920 5920 5921 5921 5922 5922 5923 5923 5924 5924 5925 5925 5926 5926 5926 5926 5926 5926 5926 5926 5926 5926 5926 5926 5926 5926 5926 5926 5926 5926 5926 5926 5926 5927 5927 5927 5927 5927 5926 5925 5925 5924 5924 5923 5922 5922
5906 5906 5906 5906 5907 5909 5909 5909 5908 5906 5905 5905 5905 5905 5905 5907 5909 5909 5909 5908 5908 5908 5908 5908 5909 5909 5910 5911 5911 5911 5912 5912 5913 5913 5913 5913 5914 5914 5915 5915 5916 5916 5917 5918 5918 5919 5919 5920 5920 5920 5920 5921 5921 5922 5922 5923 5923 5924 5924 5925 5925 5926 5926 5927 5927 5927 5927 5927 5927 5927 5927 5927 5927 5927 5927 5928 5928 5928 5928 5928 5928 5928 5927 5927 5928 5928 5928 5928 5928 5927 5927 5926 5925 5925 5924 5924 5923
5906 5905 5905 5905 5907 5908 5907 5907 5907 5906 5905 5905 5905 5905 5905 5905 5907 5909 5909 5909 5908 5908 5907 5907 5908 5908 5909 5910 5910 5910 5911 5911 5912 5912 5912 5913 5913 5914 5914 5915 5915 5916 5917 5918 5918 5919 5919 5920 5920 5921 5921 5921 5922 5923 5923 5923 5924 5925 5925 5926 5926 5927 5927 5927 5927 5927 5928 5928 5928 5928 5928 5928 5929 5929 5929 5929 5929 5929 5929 5929 5929 5929 5928 5928 5928 5928 5928 5929 5929 5928 5928 5927 5926 5926 5925 5925 5925
5904 5903 5903 5904 5905 5906 5906 5906 5907 5907 5907 5906 5906 5905 5904 5904 5905 5907 5908 5908 5907 5907 5907 5907 5907 5908 5908 5909 5910 5910 5910 5911 5911 5912 5912 5912 5913 5913 5914 5915 5915 5916 5917 5918 5918 5919 5919 5920 5920 5921 5922 5922 5923 5923 5924 5924 5925 5925 5926 5927 5927 5928 5928 5928 5928 5928 5929 5929 5929 5929 5929 5929 5930 5930 5930 5930 5930 5930 5930 5931 5930 5930 5929 5929 5929 5929 5929 5929 5929 5929 5929 5928 5927 5927 5927 5926 5926
5902 5902 5902 5902 5904 5905 5906 5906 5906 5907 5907 5908 5907 5906 5905 5904 5905 5906 5907 5907 5906 5906 5907 5908 5908 5907 5907 5908 5909 5910 5910 5910 5911 5911 5911 5912 5912 5913 5914 5915 5915 5916 5917 5918 5918 5919 5920 5920 5921 5922 5922 5923 5924 5924 5925 5925 5925 5926 5927 5927 5928 5928 5929 5929 5929 5929 5929 5930 5930 5930 5930 5930 5931 5931 5931 5931 5931 5931 5931 5931 5931 5930 5930 5930 5930 5930 5930 5930 5929 5929 5929 5929 5928 5928 5928 5927 5926
5901 5901 5900 5901 5902 5904 5905 5905 5905 5906 5907 5908 5907 5905 5905 5904 5905 5906 5906 5906 5905 5905 5906 5908 5908 5907 5907 5908 5909 5909 5910 5910 5910 5910 5911 5911 5912 5913 5914 5915 5915 5916 5917 5918 5918 5919 5920 5921 5922 5922 5923 5924 5924 5925 5925 5926 5926 5927 5927 5928 5928 5929 5929 5929 5930 5930 5930 5931 5931 5931 5931 5932 5932 5932 5932 5932 5932 5932 5932 5931 5931 5931 5931 5931 5931 5930 5930 5930 5930 5929 5929 5929 5929 5928 5928 5928 5927
5900 5899 5899 5899 5900 5902 5904 5905 5905 5906 5907 5907 5907 5905 5904 5904 5905 5906 5905 5904 5904 5904 5905 5906 5906 5906 5906 5907 5908 5909 5909 5910 5910 5910 5911 5912 5912 5913 5914 5915 5916 5917 5917 5918 5919 5919 5920 5921 5922 5923 5924 5924 5925 5925 5926 5926 5927 5927 5928 5928 5929 5929 5930 5930 5931 5931 5931 5932 5932 5932 5932 5933 5933 5932 5932 5932 5933 5933 5932 5932 5931 5931 5931 5931 5931 5931 5931 5930 5930 5929 5929 5929 5929 5928 5928 5928 5927
5899 5899 5898 5898 5899 5900 5902 5904 5905 5906 5906 5906 5906 5906 5904 5904 5906 5906 5905 5905 5905 5904 5904 5904 5905 5906 5906 5906 5907 5908 5909 5909 5909 5910 5911 5912 5912 5913 5914 5915 5916 5917 5917 5918 5919 5920 5921 5922 5923 5923 5924 5925 5925 5926 5926 5926 5927 5928 5928 5929 5929 5930 5930 5931 5931 5932 5932 5932 5933 5933 5933 5933 5933 5933 5934 5934 5933 5933 5933 5932 5932 5932 5932 5932 5932 5932 5931 5931 5930 5930 5929 5929 5928 5928 5927 5927 5927
5898 5897 5897 5897 5897 5898 5899 5902 5904 5906 5905 5905 5906 5906 5905 5904 5905 5906 5906 5906 5906 5904 5904 5903 5904 5905 5905 5906 5906 5907 5908 5908 5909 5909 5910 5911 5912 5913 5914 5915 5916 5917 5917 5918 5919 5920 5921 5922 5923 5924 5924 5925 5926 5926 5926 5927 5927 5928 5929 5930 5930 5930 5931 5931 5931 5932 5932 5933 5933 5933 5934 5934 5934 5934 5934 5934 5934 5934 5934 5933 5933 5933 5933 5933 5932 5932 5932 5931 5931 5930 5930 5929 5929 5928 5927 5926 5926
5895 5895 5896 5896 5895 5897 5898 5899 5902 5905 5905 5905 5905 5906 5905 5902 5903 5905 5905 5907 5907 5905 5904 5903 5904 5904 5904 5905 5906 5907 5907 5907 5908 5908 5909 5911 5912 5913 5913 5915 5916 5917 5917 5918 5919 5920 5921 5922 5923 5924 5924 5925 5925 5926 5926 5927 5928 5928 5929 5930 5930 5931 5931 5931 5932 5932 5933 5933 5934 5934 5934 5935 5935 5935 5935 5935 5934 5934 5934 5933 5934 5933 5933 5933 5933 5932 5932 5932 5931 5931 5930 5929 5929 5928 5927 5927 5926
5893 5895 5896 5895 5895 5896 5897 5898 5901 5903 5904 5904 5905 5905 5904 5901 5901 5904 5905 5906 5907 5906 5905 5904 5904 5904 5904 5905 5906 5906 5906 5907 5907 5908 5909 5910 5911 5912 5913 5914 5916 5917 5917 5918 5919 5920 5921 5922 5923 5924 5924 5925 5925 5926 5927 5927 5928 5928 5929 5930 5930 5931 5931 5932 5932 5933 5933 5933 5934 5934 5934 5935 5935 5935 5935 5935 5935 5934 5934 5934 5934 5934 5934 5933 5933 5932 5932 5932 5931 5931 5930 5929 5929 5928 5927 5927 5926
5893 5894 5895 5895 5894 5895 5897 5898 5900 5903 5903 5903 5904 5904 5903 5900 5901 5903 5904 5905 5907 5907 5906 5905 5904 5904 5904 5905 5906 5906 5906 5906 5907 5907 5908 5909 5911 5912 5912 5914 5915 5916 5917 5918 5919 5920 5921 5922 5923 5924 5924 5925 5925 5926 5927 5927 5928 5929 5929 5930 5930 5931 5931 5932 5932 5933 5933 5934 5934 5934 5934 5935 5935 5935 5935 5935 5935 5935 5935 5935 5934 5934 5934 5933 5933 5932 5932 5931 5931 5931 5930 5930 5929 5928 5928 5927 5926
5892 5893 5894 5894 5894 5895 5895 5897 5900 5902 5903 5902 5903 5904 5902 5900 5900 5902 5904 5905 5906 5907 5906 5905 5904 5904 5904 5905 5905 5906 5906 5906 5906 5907 5907 5909 5910 5911 5912 5913 5914 5916 5917 5918 5919 5920 5921 5922 5923 5924 5924 5925 5925 5926 5927 5927 5928 5929 5930 5930 5930 5931 5931 5931 5932 5933 5933 5934 5934 5935 5935 5935 5935 5935 5936 5935 5935 5935 5935 5935 5935 5934 5934 5933 5933 5932 5932 5931 5931 5930 5930 5929 5929 5928 5927 5927 5926
5890 5892 5893 5893 5894 5895 5894 5897 5900 5901 5902 5902 5902 5903 5901 5899 5900 5902 5903 5905 5906 5906 5907 5906 5905 5904 5904 5905 5906 5906 5905 5905 5906 5906 5907 5908 5909 5910 5911 5912 5914 5915 5917 5918 5919 5920 5921 5922 5923 5923 5924 5924 5925 5926 5927 5927 5928 5929 5930 5930 5931 5931 5931 5931 5932 5932 5933 5933 5934 5935 5935 5935 5936 5936 5936 5935 5935 5936 5935 5935 5935 5934 5934 5933 5932 5932 5931 5931 5930 5929 5929 5928 5928 5928 5927 5926 5926
5889 5891 5892 5893 5895 5895 5894 5896 5899 5900 5901 5901 5901 5902 5901 5899 5899 5901 5902 5903 5905 5906 5907 5907 5906 5905 5904 5904 5906 5906 5905 5905 5905 5906 5907 5908 5909 5910 5911 5912 5913 5915 5916 5918 5919 5920 5921 5922 5922 5923 5923 5924 5925 5926 5926 5927 5928 5929 5930 5930 5931 5931 5931 5931 5931 5932 5933 5933 5934 5935 5935 5936 5936 5936 5935 5935 5935 5935 5935 5935 5934 5934 5933 5933 5932 5931 5931 5930 5929 5929 5928 5927 5927 5927 5926 5926 5925
5888 5890 5891 5893 5894 5894 5894 5896 5899 5899 5899 5899 5900 5901 5900 5898 5898 5900 5901 5902 5903 5905 5907 5908 5907 5905 5904 5904 5905 5906 5906 5906 5906 5906 5907 5908 5908 5909 5911 5912 5913 5914 5916 5917 5919 5919 5920 5921 5922 5922 5923 5924 5925 5925 5926 5927 5928 5928 5929 5929 5930 5931 5931 5931 5931 5932 5932 5933 5934 5935 5935 5935 5935 5935 5935 5935 5935 5935 5934 5934 5933 5933 5932 5932 5931 5931 5930 5929 5928 5927 5927 5926 5926 5926 5925 5925 5924
5885 5887 5888 5890 5892 5892 5894 5896 5897 5897 5897 5898 5899 5901 5900 5898 5897 5898 5899 5901 5902 5904 5906 5907 5907 5905 5904 5904 5904 5905 5905 5906 5906 5906 5907 5907 5908 5909 5910 5912 5913 5914 5915 5917 5918 5919 5920 5921 5921 5922 5923 5924 5924 5925 5926 5927 5927 5928 5928 5929 5929 5930 5931 5931 5931 5931 5932 5933 5934 5934 5934 5935 5935 5935 5935 5935 5935 5934 5934 5933 5933 5932 5931 5931 5930 5929 5928 5928 5927 5926 5926 5925 5925 5925 5924 5924 5923
5882 5884 5886 5888 5889 5891 5892 5892 5893 5894 5895 5896 5898 5900 5899 5897 5897 5897 5898 5900 5901 5903 5904 5905 5906 5905 5904 5904 5904 5904 5904 5905 5906 5906 5907 5908 5908 5909 5910 5911 5913 5914 5915 5916 5917 5918 5919 5920 5921 5922 5923 5923 5924 5924 5925 5926 5927 5927 5928 5928 5928 5929 5930 5930 5930 5931 5932 5933 5934 5934 5934 5934 5934 5935 5935 5935 5934 5934 5933 5932 5932 5931 5930 5929 5928 5928 5927 5926 5926 5925 5925 5924 5924 5923 5923 5922 5922
5880 5881 5883 5885 5888 5890 5890 5889 5890 5891 5893 5895 5897 5898 5899 5898 5897 5896 5897 5899 5900 5901 5902 5903 5904 5904 5903 5903 5904 5904 5904 5904 5905 5906 5906 5907 5908 5909 5910 5911 5912 5913 5914 5916 5917 5918 5919 5920 5920 5921 5922 5923 5923 5924 5924 5925 5926 5927 5927 5927 5928 5928 5929 5929 5930 5930 5931 5932 5933 5934 5934 5934 5934 5934 5934 5934 5934 5933 5933 5932 5931 5930 5929 5928 5928 5927 5926 5925 5924 5924 5924 5923 5922 5922 5921 5921 5920
5877 5879 5880 5883 5887 5889 5888 5889 5890 5891 5892 5894 5896 5897 5898 5897 5896 5895 5895 5897 5898 5899 5900 5901 5902 5903 5903 5903 5903 5903 5903 5904 5904 5906 5906 5907 5908 5909 5909 5910 5911 5912 5914 5915 5917 5918 5919 5920 5920 5920 5921 5922 5923 5923 5924 5925 5925 5926 5926 5927 5927 5928 5928 5929 5929 5930 5931 5931 5932 5933 5933 5933 5934 5934 5933 5933 5933 5932 5932 5931 5930 5930 5929 5928 5927 5926 5926 5925 5924 5923 5923 5922 5921 5921 5920 5920 5919
5875 5877 5878 5882 5886 5888 5888 5890 5890 5890 5890 5891 5894 5896 5896 5894 5894 5894 5894 5895 5896 5897 5898 5899 5900 5901 5902 5902 5903 5903 5903 5903 5904 5905 5906 5907 5908 5908 5909 5910 5910 5911 5913 5914 5916 5917 5918 5919 5920 5920 5920 5921 5922 5922 5923 5924 5924 5925 5925 5926 5926 5927 5927 5928 5929 5929 5930 5931 5931 5932 5932 5933 5933 5933 5933 5932 5932 5931 5931 5930 5930 5929 5928 5927 5927 5926 5925 5924 5923 5922 5922 5921 5920 5920 5919 5919 5918
5873 5875 5878 5881 5884 5886 5888 5888 5888 5887 5886 5887 5891 5893 5893 5892 5892 5892 5894 5894 5895 5895 5895 5897 5898 5900 5901 5902 5902 5902 5902 5902 5903 5904 5906 5906 5907 5908 5909 5910 5910 5911 5912 5913 5914 5916 5917 5918 5919 5919 5919 5920 5921 5922 5922 5923 5923 5924 5924 5925 5926 5926 5927 5927 5928 5929 5929 5930 5931 5931 5932 5932 5932 5932 5931 5931 5931 5930 5930 5929 5929 5928 5927 5927 5926 5925 5925 5924 5923 5922 5921 5920 5920 5919 5918 5918 5917
5870 5874 5878 5880 5880 5883 5885 5886 5886 5884 5885 5887 5889 5890 5891 5891 5890 5891 5892 5893 5893 5893 5894 5895 5896 5898 5900 5902 5902 5901 5901 5901 5902 5903 5905 5906 5907 5908 5909 5910 5910 5911 5912 5913 5914 5915 5916 5917 5917 5918 5918 5918 5919 5920 5921 5922 5922 5923 5923 5924 5924 5925 5926 5927 5927 5928 5929 5929 5930 5931 5931 5931 5931 5931 5930 5930 5929 5929 5929 5928 5927 5927 5926 5926 5925 5925 5924 5923 5922 5922 5921 5920 5919 5918 5917 5917 5916
5869 5874 5876 5877 5878 5879 5881 5884 5884 5883 5884 5885 5886 5888 5889 5888 5888 5889 5891 5891 5891 5891 5892 5893 5894 5896 5898 5900 5901 5900 5900 5900 5901 5902 5903 5905 5906 5907 5908 5909 5909 5910 5911 5912 5913 5914 5915 5916 5916 5917 5917 5917 5918 5918 5920 5921 5921 5921 5922 5923 5923 5924 5925 5926 5927 5928 5928 5929 5929 5930 5930 5930 5930 5930 5929 5929 5928 5928 5928 5927 5926 5926 5925 5925 5924 5924 5923 5923 5922 5921 5921 5920 5919 5918 5916 5915 5915
5868 5873 5872 5874 5876 5876 5879 5880 5881 5882 5881 5880 5881 5884 5884 5883 5885 5888 5888 5888 5888 5889 5891 5891 5892 5894 5896 5898 5900 5900 5899 5899 5900 5901 5902 5903 5904 5905 5906 5907 5908 5909 5910 5911 5912 5913 5914 5915 5915 5916 5916 5916 5916 5917 5918 5919 5920 5920 5921 5922 5922 5923 5924 5925 5926 5927 5927 5928 5928 5929 5929 5929 5929 5928 5928 5927 5927 5926 5926 5926 5925 5925 5925 5924 5924 5923 5922 5922 5921 5921 5920 5919 5918 5917 5916 5915 5914
5867 5870 5869 5871 5873 5874 5876 5876 5878 5880 5875 5873 5877 5879 5878 5878 5881 5884 5883 5883 5885 5888 5889 5889 5890 5892 5894 5896 5898 5898 5898 5898 5899 5900 5900 5902 5903 5904 5904 5905 5906 5908 5908 5909 5910 5911 5912 5913 5914 5915 5916 5916 5916 5916 5916 5917 5918 5919 5920 5920 5921 5922 5923 5923 5924 5925 5926 5926 5927 5927 5927 5927 5927 5927 5926 5926 5925 5924 5924 5924 5924 5924 5924 5923 5923 5922 5922 5921 5920 5920 5919 5918 5917 5916 5915 5914 5913
5863 5865 5865 5868 5869 5871 5872 5872 5875 5874 5867 5868 5873 5875 5875 5874 5875 5877 5878 5880 5884 5886 5887 5887 5888 5890 5891 5894 5896 5897 5897 5897 5898 5898 5899 5900 5901 5902 5903 5904 5905 5906 5907 5908 5909 5909 5910 5911 5912 5913 5914 5915 5916 5916 5915 5916 5917 5918 5918 5919 5920 5921 5921 5922 5923 5924 5925 5925 5925 5926 5926 5926 5926 5925 5924 5924 5923 5923 5923 5923 5923 5923 5923 5923 5922 5922 5921 5920 5919 5919 5918 5916 5915 5914 5913 5912 5911
5859 5860 5862 5864 5865 5868 5868 5867 5869 5864 5859 5865 5871 5873 5872 5869 5869 5873 5875 5879 5883 5884 5885 5886 5887 5888 5889 5891 5893 5895 5896 5897 5897 5897 5897 5898 5899 5900 5901 5902 5903 5904 5905 5906 5906 5907 5908 5909 5910 5910 5911 5913 5914 5915 5915 5915 5915 5916 5917 5918 5919 5919 5920 5921 5921 5922 5923 5924 5924 5924 5924 5924 5924 5923 5922 5922 5922 5922 5922 5922 5923 5922 5922 5922 5921 5921 5920 5919 5918 5917 5916 5915 5914 5913 5911 5910 5909
5853 5855 5857 5858 5860 5862 5861 5860 5860 5856 5857 5864 5870 5871 5867 5863 5866 5872 5874 5877 5880 5881 5883 5885 5886 5886 5887 5888 5890 5892 5893 5895 5895 5895 5895 5896 5897 5899 5899 5900 5901 5902 5903 5903 5904 5905 5906 5906 5907 5908 5909 5910 5911 5912 5913 5913 5914 5914 5915 5916 5917 5918 5919 5919 5920 5921 5921 5922 5922 5923 5923 5922 5921 5921 5920 5921 5921 5921 5922 5922 5922 5922 5921 5921 5920 5919 5919 5918 5917 5916 5914 5913 5912 5911 5909 5908 5907
5849 5851 5852 5852 5854 5854 5852 5854 5856 5855 5857 5863 5868 5867 5861 5859 5864 5869 5871 5874 5877 5879 5881 5882 5883 5884 5885 5886 5887 5889 5891 5892 5893 5893 5893 5894 5895 5897 5897 5898 5898 5900 5900 5901 5902 5902 5903 5904 5905 5906 5907 5907 5909 5910 5911 5912 5912 5912 5913 5914 5915 5917 5917 5918 5918 5919 5920 5920 5920 5920 5920 5920 5919 5918 5919 5919 5920 5920 5921 5921 5921 5921 5920 5920 5919 5918 5917 5916 5915 5914 5913 5912 5911 5909 5908 5906 5905
5846 5848 5849 5848 5849 5849 5850 5853 5854 5855 5857 5860 5864 5861 5855 5857 5862 5866 5870 5873 5874 5876 5878 5880 5881 5882 5883 5883 5884 5886 5888 5890 5891 5891 5891 5892 5893 5894 5895 5896 5896 5897 5898 5898 5899 5900 5901 5902 5903 5904 5905 5905 5906 5907 5908 5909 5909 5910 5910 5912 5913 5915 5916 5916 5917 5917 5918 5918 5918 5918 5918 5917 5917 5917 5917 5918 5919 5919 5920 5920 5920 5920 5919 5919 5918 5917 5916 5915 5914 5913 5911 5910 5909 5907 5906 5904 5903
5843 5845 5844 5842 5845 5849 5851 5852 5853 5855 5855 5856 5858 5855 5853 5857 5860 5864 5868 5869 5870 5872 5874 5877 5878 5879 5880 5881 5882 5884 5886 5887 5888 5889 5889 5890 5891 5892 5893 5894 5894 5895 5896 5896 5897 5898 5899 5900 5900 5901 5902 5903 5904 5904 5905 5906 5907 5907 5908 5909 5910 5912 5914 5915 5915 5915 5916 5916 5916 5916 5916 5915 5915 5915 5916 5917 5918 5918 5918 5918 5918 5918 5918 5917 5916 5915 5914 5913 5912 5911 5910 5908 5907 5905 5904 5903 5902
5839 5839 5838 5839 5845 5849 5849 5849 5851 5853 5851 5850 5853 5852 5852 5856 5857 5860 5864 5865 5867 5869 5871 5873 5875 5876 5878 5878 5880 5881 5882 5884 5885 5886 5888 5888 5889 5890 5891 5892 5892 5893 5894 5895 5896 5897 5897 5897 5898 5899 5899 5900 5900 5901 5902 5902 5903 5904 5905 5906 5907 5909 5911 5912 5913 5913 5914 5914 5914 5914 5913 5913 5913 5914 5915 5916 5916 5916 5916 5916 5917 5916 5916 5915 5915 5914 5913 5912 5911 5909 5908 5907 5905 5904 5902 5901 5900
5833 5833 5836 5841 5844 5845 5844 5844 5847 5848 5845 5845 5848 5849 5850 5852 5852 5856 5860 5862 5864 5866 5868 5871 5872 5873 5875 5876 5878 5878 5879 5881 5882 5883 5885 5886 5887 5888 5889 5890 5890 5891 5892 5893 5894 5895 5895 5895 5896 5896 5897 5897 5897 5898 5898 5899 5900 5901 5902 5903 5904 5906 5908 5910 5911 5911 5912 5912 5911 5911 5911 5910 5911 5912 5913 5914 5915 5915 5915 5915 5915 5915 5914 5913 5913 5912 5911 5911 5909 5908 5907 5905 5904 5902 5901 5899 5898
5829 5831 5835 5837 5837 5838 5839 5838 5839 5840 5840 5841 5844 5845 5846 5847 5849 5853 5857 5859 5861 5863 5866 5867 5869 5871 5872 5874 5875 5876 5877 5878 5879 5881 5882 5883 5885 5886 5887 5887 5888 5889 5889 5890 5891 5892 5893 5893 5893 5894 5894 5894 5894 5895 5896 5896 5897 5898 5899 5900 5901 5902 5904 5906 5908 5909 5909 5909 5909 5908 5908 5908 5909 5910 5911 5912 5913 5913 5913 5913 5913 5912 5912 5911 5910 5910 5909 5909 5908 5906 5905 5904 5902 5900 5899 5897 5896
5826 5827 5829 5830 5831 5833 5835 5834 5834 5835 5836 5838 5840 5841 5842 5844 5847 5850 5853 5856 5859 5861 5862 5864 5866 5868 5870 5871 5872 5873 5875 5876 5877 5878 5879 5880 5882 5883 5884 5885 5885 5886 5887 5888 5889 5890 5891 5891 5891 5891 5892 5892 5892 5893 5893 5894 5895 5895 5896 5897 5898 5899 5901 5903 5905 5906 5907 5906 5906 5906 5905 5905 5907 5909 5909 5910 5910 5911 5911 5911 5911 5910 5910 5909 5908 5908 5907 5906 5905 5904 5903 5902 5900 5899 5897 5895 5894
5820 5821 5821 5824 5826 5828 5830 5830 5830 5831 5832 5834 5836 5836 5838 5842 5845 5847 5850 5853 5855 5857 5859 5861 5863 5866 5867 5868 5870 5871 5873 5873 5874 5875 5876 5877 5878 5880 5881 5882 5883 5884 5884 5885 5887 5888 5889 5889 5889 5889 5890 5890 5890 5891 5891 5892 5892 5893 5893 5894 5895 5896 5897 5899 5902 5903 5904 5903 5903 5903 5902 5903 5905 5906 5907 5907 5908 5908 5909 5909 5909 5908 5908 5907 5906 5905 5904 5903 5902 5902 5901 5900 5898 5897 5895 5894 5892
5817 5818 5819 5821 5824 5825 5826 5825 5826 5828 5828 5829 5832 5832 5834 5839 5842 5844 5847 5850 5852 5854 5856 5859 5860 5862 5864 5866 5867 5868 5870 5871 5871 5872 5873 5874 5876 5877 5878 5879 5880 5881 5882 5883 5885 5886 5886 5887 5888 5888 5888 5888 5888 5889 5889 5889 5890 5890 5891 5891 5891 5892 5894 5896 5898 5900 5900 5900 5900 5900 5899 5901 5903 5904 5905 5905 5906 5906 5906 5906 5907 5906 5906 5905 5904 5903 5901 5900 5900 5899 5898 5897 5896 5895 5893 5892 5890